AFL122 UNKL-UNNT

Flight info

Callsign AFL122
Flight time N/A
Altitude 36000
Route APRUS2F APRUS B926 NATIR NATIR1P
Aircraft A20N/M-SDE2E3FGHIRWXY/LB1

Departure

Time 2026-05-01 15:20
Airport Krasnoyarsk International Airport (UNKL)

Arrival

Time N/A
Airport Novosibirsk Tolmachevo Airport (UNNT)
Time Latitude Longitude Altitude Speed Heading
2026-05-01 14:31 56.17932 92.48620 947 ft 0 kts 22°
2026-05-01 14:43 56.17932 92.48619 948 ft 0 kts 22°
2026-05-01 14:44 56.17933 92.48620 948 ft 0 kts 22°
2026-05-01 15:02 56.17927 92.48615 947 ft 2 kts 36°
2026-05-01 15:02 56.17910 92.48600 947 ft 1 kts 20°
2026-05-01 15:02 56.17901 92.48593 947 ft 2 kts 16°
2026-05-01 15:03 56.17887 92.48590 947 ft 2 kts 359°
2026-05-01 15:03 56.17872 92.48593 947 ft 2 kts 343°
2026-05-01 15:03 56.17858 92.48603 947 ft 2 kts 328°
2026-05-01 15:03 56.17847 92.48620 947 ft 2 kts 313°
2026-05-01 15:04 56.17838 92.48640 947 ft 2 kts 298°
2026-05-01 15:04 56.17834 92.48653 947 ft 1 kts 290°
2026-05-01 15:04 56.17833 92.48656 947 ft 0 kts 292°
2026-05-01 15:07 56.17836 92.48645 947 ft 2 kts 290°
2026-05-01 15:07 56.17849 92.48584 947 ft 6 kts 291°
2026-05-01 15:07 56.17856 92.48513 947 ft 5 kts 266°
2026-05-01 15:08 56.17839 92.48459 947 ft 5 kts 215°
2026-05-01 15:08 56.17792 92.48415 947 ft 8 kts 202°
2026-05-01 15:08 56.17739 92.48392 947 ft 8 kts 172°
2026-05-01 15:08 56.17719 92.48477 947 ft 9 kts 110°
2026-05-01 15:09 56.17692 92.48594 947 ft 13 kts 112°
2026-05-01 15:09 56.17644 92.48794 947 ft 20 kts 112°
2026-05-01 15:09 56.17591 92.49020 947 ft 19 kts 112°
2026-05-01 15:09 56.17537 92.49244 947 ft 19 kts 113°
2026-05-01 15:10 56.17484 92.49464 947 ft 18 kts 112°
2026-05-01 15:10 56.17381 92.49900 947 ft 20 kts 112°
2026-05-01 15:10 56.17321 92.50148 947 ft 22 kts 114°
2026-05-01 15:11 56.17260 92.50409 947 ft 22 kts 112°
2026-05-01 15:11 56.17160 92.50826 947 ft 0 kts 112°
2026-05-01 15:12 56.17129 92.50957 947 ft 16 kts 112°
2026-05-01 15:12 56.17086 92.51138 947 ft 15 kts 113°
2026-05-01 15:13 56.16949 92.51715 947 ft 16 kts 111°
2026-05-01 15:14 56.16913 92.51864 947 ft 15 kts 114°
2026-05-01 15:14 56.16855 92.51993 947 ft 7 kts 142°
2026-05-01 15:14 56.16850 92.52000 947 ft 0 kts 142°
2026-05-01 15:15 56.16812 92.52039 947 ft 6 kts 156°
2026-05-01 15:16 56.16793 92.52051 947 ft 0 kts 162°
2026-05-01 15:17 56.16690 92.52067 947 ft 6 kts 187°
2026-05-01 15:18 56.16671 92.51929 947 ft 0 kts 291°
2026-05-01 15:19 56.16730 92.51679 947 ft 55 kts 293°
2026-05-01 15:19 56.17354 92.49068 954 ft 165 kts 292°
2026-05-01 15:19 56.17820 92.47112 1485 ft 173 kts 292°
2026-05-01 15:20 56.18762 92.43205 2955 ft 178 kts 292°
2026-05-01 15:20 56.19264 92.41102 3471 ft 194 kts 292°
2026-05-01 15:20 56.19812 92.38787 3990 ft 211 kts 292°
2026-05-01 15:21 56.20419 92.36230 4411 ft 235 kts 292°
2026-05-01 15:21 56.21081 92.33432 4988 ft 254 kts 292°
2026-05-01 15:21 56.21704 92.30372 5604 ft 270 kts 279°
2026-05-01 15:21 56.21614 92.27070 6478 ft 274 kts 253°
2026-05-01 15:22 56.20229 92.20689 8340 ft 281 kts 249°
2026-05-01 15:22 56.19509 92.17473 9216 ft 283 kts 249°
2026-05-01 15:22 56.18785 92.14218 10113 ft 285 kts 250°
2026-05-01 15:23 56.18050 92.10894 10875 ft 293 kts 250°
2026-05-01 15:23 56.17284 92.07414 11389 ft 309 kts 250°
2026-05-01 15:23 56.16493 92.03822 12091 ft 315 kts 250°
2026-05-01 15:23 56.15685 92.00164 12906 ft 318 kts 251°
2026-05-01 15:24 56.14872 91.96485 13702 ft 321 kts 251°
2026-05-01 15:24 56.14045 91.92742 14375 ft 328 kts 251°
2026-05-01 15:24 56.13200 91.88927 15129 ft 332 kts 252°
2026-05-01 15:24 56.12351 91.85101 15886 ft 335 kts 252°
2026-05-01 15:25 56.11499 91.81269 16627 ft 337 kts 252°
2026-05-01 15:25 56.10627 91.77360 17350 ft 341 kts 253°
2026-05-01 15:25 56.09746 91.73405 17870 ft 343 kts 253°
2026-05-01 15:25 56.08866 91.69472 18105 ft 343 kts 253°
2026-05-01 15:26 56.07974 91.65482 18120 ft 342 kts 253°
2026-05-01 15:26 56.07088 91.61534 18124 ft 342 kts 253°
2026-05-01 15:26 56.06211 91.57634 18128 ft 342 kts 253°
2026-05-01 15:26 56.05323 91.53694 18143 ft 342 kts 253°
2026-05-01 15:27 56.04433 91.49756 18131 ft 342 kts 253°
2026-05-01 15:27 56.03537 91.45798 18127 ft 344 kts 253°
2026-05-01 15:27 56.02636 91.41821 18346 ft 350 kts 253°
2026-05-01 15:28 56.00797 91.33743 19837 ft 353 kts 252°
2026-05-01 15:28 55.99884 91.29726 20491 ft 356 kts 252°